www.pogodaiklimat.ru

Погода и климат >> Архив погоды >> Франция >> Paris Orly Airport


АРХИВ ПОГОДЫ в Paris Orly Airport

Время (UTC), дата Ветер
(напр.,м/с)
 
Видим.   Явления Облачность Т
(С)
Тd
(С)
f
(%)
Тe
(С)
Тes
(С)
Комфортность P
(гПа)
Po
(гПа)
Тmin
(С)
Tmax
(С)
R
(мм)
R24
(мм)
S
(см)
19 12.08 ЮЗ 3 3000 м дождь {морось} 9/9 150 м
[Frnb]
+17.8 +16.3 91 +18 +18 прохладно 1019.9 1009.3 0.6
20 12.08 ЮЗ 1 25 км в посл. час дождь {морось} 9/9 300 м
[Sc]
+17.4 +16.1 92 +18 +18 прохладно 1020.3 1009.7
21 12.08 З 1 25 км {дождь, морось} 9/9 210 м
[Sc]
+17.4 +16.1 92 +18 +18 прохладно 1020.5 1009.8 0.6
22 12.08 З 1 25 км в посл. час дождь 9/9 300 м
[Sc]
+17.2 +15.2 88 +19 +19 тепло 1020.7 1010.0 0.2
23 12.08 СЗ 1 25 км 4/4 480 м
[Sc]
+16.3 +13.8 85 +17 +17 по сезону 1021.0 1010.3
00 13.08 СЗ 1 25 км {дождь, морось} 4/4 1020 м
[Sc]
+15.3 +12.8 85 +16 +16 по сезону 1021.1 1010.4 0.2
01 13.08 З 1 30 км 6/6 1020 м
[Sc]
+14.5 +11.3 81 +16 +16 тепло 1021.0 1010.2
02 13.08 З 1 25 км 8/8 1020 м
[Sc]
+14.0 +12.0 88 +15 +15 по сезону 1021.2 1010.4
03 13.08 СЗ 1 26 км 3/3 1020 м
[Sc]
+12.2 +9.9 86 +13 +13 прохладно 1021.2 1010.3
04 13.08 З 1 17 км 4/1 1020 м
[Sc Ci fib]
+11.0 +9.3 89 +12 +12 по сезону 1021.1 1010.2
05 13.08 З 1 30 км 3/1 1020 м
[Sc Ci fib]
+10.9 +9.8 93 +11 +11 прохладно 1021.3 1010.4
06 13.08 З 1 30 км 5/4 1000 м
[Sc Ci fib]
+12.6 +11.5 93 +13 +14 по сезону 1021.5 1010.6 +10.5 +18.8 0.8
07 13.08 З 1 30 км 4/3 1140 м
[Sc Ci fib]
+15.1 +11.9 81 +16 +19 прохладно 1021.8 1011.0
08 13.08 З 1 28 км н/о +17.4 +12.1 71 +18 +18 по сезону 1021.9 1011.2
09 13.08 З 1 50 км 6/6 720 м
[Cu Sc]
+18.5 +10.6 60 +21 +25 комфорт 1022.0 1011.4
10 13.08 З 1 50 км 6/6 1020 м
[Cu Sc]
+19.5 +10.8 57 +22 +28 комфорт 1021.9 1011.3
11 13.08 ЮЗ 1 30 км 6/6 1170 м
[Cu Sc]
+19.4 +9.6 53 +21 +28 комфорт 1021.9 1011.3
12 13.08 В 1 30 км 5/5 1470 м
[Sc diur, vesp]
+21.6 +9.8 47 +23 +33 комфорт 1021.6 1011.1
13 13.08 штиль 0 30 км 8/8 1440 м
[Sc]
+21.4 +9.6 47 +23 +27 комфорт 1021.2 1010.7
14 13.08 СЗ 1 30 км 8/8 1500 м
[Sc]
+21.5 +9.4 46 +23 +26 комфорт 1021.1 1010.6
15 13.08 В 1 30 км 5/5 1500 м
[Sc]
+21.9 +9.1 44 +23 +29 комфорт 1020.8 1010.3
16 13.08 С 1 30 км 4/4 1500 м
[Sc]
+22.4 +8.9 42 +24 +28 комфорт 1020.4 1009.9
17 13.08 СВ 1 35 км 4/4 1500 м
[Sc]
+21.0 +8.6 45 +24 +25 комфорт 1020.2 1009.7
18 13.08 СВ 1 35 км 4/4 1500 м
[Sc]
+20.0 +9.3 50 +23 +23 комфорт 1020.3 1009.7 +12.6 +23.9
19 13.08 ЮВ 1 35 км 3/3 1500 м
[Sc]
+19.4 +9.6 53 +21 +21 комфорт 1020.4 1009.8
20 13.08 Ю 1 35 км 3/3 1500 м
[Sc]
+17.2 +9.9 62 +18 +18 прохладно 1020.9 1010.2
21 13.08 ЮВ 1 35 км ясно +16.0 +9.9 67 +17 +17 прохладно 1020.9 1010.2
22 13.08 З 1 35 км ясно +13.4 +9.6 78 +14 +14 по сезону 1020.7 1009.9
23 13.08 штиль 0 35 км ясно +12.8 +9.6 81 +12 +12 прохладно 1020.5 1009.7
00 14.08 ЮВ 1 35 км 3/3 1500 м
[Sc]
+12.8 +9.8 82 +14 +14 прохладно 1020.3 1009.5
01 14.08 штиль 0 35 км 6/6 1500 м
[Sc]
+12.2 +9.8 85 +12 +12 прохладно 1020.3 1009.4
02 14.08 ЮЗ 1 35 км 3/3 1500 м
[Sc]
+11.1 +9.0 87 +12 +12 прохладно 1019.9 1009.0
03 14.08 ЮЗ 1 19 км 1/1 1500 м
[Sc]
+10.5 +8.8 89 +11 +11 прохладно 1019.8 1008.9
04 14.08 ЮЗ 1 15 км ясно +10.0 +8.6 91 +10 +10 прохладно 1019.5 1008.6
05 14.08 штиль 0 20 км местами туман поземный 1/0
[Ac trans]
+9.9 +8.7 92 +9 +9 холодно 1019.4 1008.5
06 14.08 ЮВ 1 25 км 1/1 1500 м
[Sc Ci fib]
+12.7 +11.4 92 +13 +14 по сезону 1019.5 1008.7 +9.9 +20.4
07 14.08 В 1 25 км 1/1 1500 м
[Sc Ci fib]
+15.9 +11.7 76 +17 +21 прохладно 1019.3 1008.6
08 14.08 штиль 0 30 км 1/1 1500 м
[Sc Ci fib]
+19.0 +11.1 60 +20 +27 по сезону 1019.0 1008.4
09 14.08 В 1 30 км 1/1 1500 м
[Sc Ci fib]
+21.4 +11.4 53 +23 +34 комфорт 1018.9 1008.4
10 14.08 Ю 1 30 км 1/1 1500 м
[Sc Ci fib]
+22.3 +12.3 53 +25 +38 комфорт 1018.6 1008.1
11 14.08 ЮВ 1 35 км 3/1 1500 м
[Cu Sc Ac trans Ci fib]
+23.7 +11.7 47 +25 +40 комфорт 1018.0 1007.6
12 14.08 СЗ 1 30 км 3/3 1380 м
[Cu hum Ci fib]
+25.2 +12.1 44 +27 +40 жарко 1017.3 1006.9
13 14.08 В 1 30 км 4/3 1500 м
[Cu hum Ac trans Ci fib]
+25.7 +12.5 44 +27 +38 жарко 1016.7 1006.4
14 14.08 ЮВ 2 40 км 4/3 1500 м
[Cu hum Ac trans Ci fib]
+25.5 +12.3 44 +27 +35 жарко 1016.2 1005.9
15 14.08 Ю 2 30 км 3/1 1500 м
[Cu hum Ci fib]
+27.4 +12.6 40 +29 +37 жарко 1015.6 1005.3
16 14.08 Ю 2 35 км н/о +28.1 +12.4 38 +29 +29 жарко 1015.1 1004.9
17 14.08 ЮВ 2 30 км 5/1 1500 м
[Cu hum Ci fib]
+25.9 +12.7 44 +28 +30 жарко 1015.0 1004.7
18 14.08 В 1 30 км 8/0
[Ac trans Ci fib]
+26.0 +12.8 44 +28 +28 жарко 1014.7 1004.4 +12.7 +28.1
19 14.08 штиль 0 60 км 8/0
[Ac trans Ci fib]
+24.0 +12.9 50 +26 +26 жарко 1014.9 1004.5
20 14.08 В 1 50 км н/о +22.3 +13.4 57 +25 +25 комфорт 1015.0 1004.6
21 14.08 В 1 30 км 8/0
[Ac trans Ci fib]
+22.0 +13.6 59 +25 +25 комфорт 1014.7 1004.3
22 14.08 В 2 30 км 9/0
[Ac und]
+21.9 +13.3 58 +25 +25 комфорт 1014.4 1004.0
23 14.08 В 1 30 км 9/0
[Ac und]
+20.7 +12.9 61 +24 +24 комфорт 1014.6 1004.1
00 15.08 В 1 60 км 8/0
[Ac und Ci sp]
+19.3 +12.3 64 +22 +22 комфорт 1014.2 1003.7
01 15.08 В 2 55 км 8/0
[Ac und Ci sp]
+19.6 +12.8 65 +22 +22 комфорт 1013.9 1003.4
02 15.08 ЮВ 1 30 км гроза без осадков 9/4
[Cb calv Ac und]
+19.3 +12.8 66 +22 +22 комфорт 1013.5 1003.0
03 15.08 В 2 14 км в посл. час гроза {ливн. осадки} 9/4
[Cb calv Ac und]
+17.8 +15.1 84 +18 +18 тепло 1012.8 1002.2 4
04 15.08 ЮВ 2 60 км н/о +18.0 +14.5 80 +19 +19 тепло 1011.8 1001.3
05 15.08 Ю 2 25 км гроза без осадков {ливн. осадки} 8/4
[Cb calv Ac As Ci fib]
+18.1 +14.6 80 +19 +19 тепло 1012.0 1001.5 0.2
06 15.08 Ю 2 55 км в посл. час гроза {ливн. осадки} 9/0
[Ac As Ci fib]
+18.8 +15.3 80 +21 +21 комфорт 1012.4 1001.9 +17.6 +26.0 5
07 15.08 ЮЗ 1 45 км 9/9
[]
+20.9 +16.5 76 +26 +26 душно 1012.6 1002.2
08 15.08 ЮЗ 2 30 км 9/1 2000 м
[Cu med, cong Ac cast Ci fib]
+23.0 +17.2 70 +28 +31 душно 1013.3 1002.9
09 15.08 ЮЗ 3 29 км н/о +23.4 +17.2 68 +29 +29 душно 1014.2 1003.8
10 15.08 ЮЗ 2 30 км {дождь} 9/9 1500 м
[]
+22.2 +17.1 73 +27 +28 душно 1014.9 1004.5
11 15.08 ЮЗ 2 40 км 9/1 1500 м
[Sc Ac As]
+23.1 +17.1 69 +28 +33 душно 1015.3 1004.9
12 15.08 ЮЗ 2 30 км {дождь} 9/1 1000 м
[Cu hum Ac trans Ci fib]
+26.0 +17.4 59 +30 +37 душно 1015.7 1005.4
13 15.08 ЮЗ 2 35 км 9/4 1200 м
[Cu Sc Ci fib]
+26.4 +16.3 54 +30 +37 душно 1015.7 1005.4
14 15.08 З 2 40 км 9/6 1380 м
[Cu Sc Ci fib]
+26.2 +15.3 51 +29 +33 жарко 1015.9 1005.6
15 15.08 З 1 17 км дождь {ливн. осадки} 9/8 1000 м
[]
+24.3 +16.6 62 +28 +29 душно 1016.1 1005.7 0.2
16 15.08 Ю 4 6000 м гроза, ливневой дождь 9/8 1300 м
[Cb cap]
+18.4 +16.6 89 +19 +19 очень
холодно
1017.4 1006.8 11
17 15.08 Ю 2 13 км в посл. час гроза {ливн. осадки} 9/9 700 м
[Cb cap]
+18.5 +17.3 93 +20 +20 холодно 1017.6 1007.0 0.4
18 15.08 ЮЗ 2 25 км {гроза, ливн. осадки} 9/5 1000 м
[Cb calv Ac As]
+19.3 +17.3 88 +22 +22 комфорт 1017.4 1006.9 +18.2 +27.8 11
19 15.08 Ю 1 25 км 9/9 1080 м
[Cb calv]
+19.4 +17.5 89 +23 +23 комфорт 1018.0 1007.5
20 15.08 Ю 1 2500 м гроза, ливневой дождь 10/9 210 м
[Cb cap]
+19.2 +17.9 92 +22 +22 комфорт 1018.8 1008.2 5
21 15.08 СВ 1 15 км в посл. час гроза {ливн. осадки} 8/8 240 м
[Cb cap]
+18.8 +17.6 93 +22 +22 комфорт 1019.5 1008.9 6
22 15.08 С 1 15 км 6/6 1000 м
[Sc]
+18.6 +17.6 94 +21 +21 комфорт 1019.9 1009.3
23 15.08 С 2 20 км 8/8 1500 м
[Sc]
+18.3 +15.5 84 +19 +19 тепло 1020.3 1009.7
00 16.08 С 1 25 км {гроза, ливн. осадки} 6/6 2000 м
[Sc]
+17.5 +14.4 82 +19 +19 тепло 1020.4 1009.7
01 16.08 С 1 27 км н/о +16.2 +13.7 85 +18 +18 тепло 1020.5 1009.8
02 16.08 С 1 18 км 1/1
[Sc]
+15.2 +13.4 89 +16 +16 по сезону 1020.7 1010.0
03 16.08 СВ 1 25 км 3/3 1500 м
[Sc]
+15.2 +13.6 90 +16 +16 по сезону 1020.8 1010.1
04 16.08 СВ 1 35 км 4/3 1320 м
[Sc Ci fib]
+15.0 +12.7 86 +16 +16 тепло 1021.1 1010.3
05 16.08 СВ 1 35 км 4/3 1230 м
[Sc Ci fib]
+14.6 +12.5 87 +15 +15 по сезону 1021.5 1010.7
06 16.08 СВ 1 35 км 9/3 1500 м
[Sc Ci fib]
+15.8 +13.3 85 +16 +17 по сезону 1021.4 1010.7 +14.6 +19.5 6
07 16.08 СВ 1 35 км н/о +17.2 +13.9 81 +19 +19 по сезону 1021.4 1010.7
08 16.08 СВ 1 35 км 9/0
[]
+18.0 +13.3 74 +19 +23 по сезону 1021.5 1010.8
09 16.08 СВ 1 50 км 8/0
[]
+19.5 +13.2 67 +22 +28 комфорт 1021.5 1010.9
10 16.08 В 2 30 км 8/1 2000 м
[Sc Ci sp]
+20.9 +14.1 65 +25 +34 комфорт 1021.3 1010.8 0.2
11 16.08 В 2
{5}
30 км 9/1 480 м
[Cu Sc Ac trans Ci sp]
+22.3 +14.9 63 +26 +33 жарко 1021.1 1010.6
12 16.08 В 1 30 км 9/6 870 м
[Cu Sc Ac und]
+23.4 +15.2 60 +28 +31 душно 1020.8 1010.4 0.2
13 16.08 В 1 30 км 9/9 900 м
[Cu Sc]
+24.1 +15.0 57 +27 +29 жарко 1020.5 1010.1
14 16.08 ЮВ 2 45 км 9/4 1200 м
[Cu Sc Ac trans Ci fib]
+25.0 +14.2 51 +27 +32 жарко 1019.7 1009.3
15 16.08 ЮЗ 1 30 км 9/9 1260 м
[Cu Sc]
+24.7 +15.6 57 +28 +29 душно 1019.9 1009.5
16 16.08 ЮВ 1 24 км 5/4 1200 м
[Cu med, cong Ac trans Ci fib]
+25.6 +15.3 53 +29 +32 душно 1019.3 1008.9
17 16.08 ЮВ 2 30 км 9/4 1200 м
[Cu med, cong Ac trans]
+24.2 +14.9 56 +27 +28 жарко 1019.1 1008.7
18 16.08 Ю 1 30 км слабый ливневой дождь 9/4 1200 м
[Cu med, cong Ac trans]
+23.4 +15.4 61 +28 +28 душно 1018.8 1008.4 +15.8 +25.6 0.2
19 16.08 С 1 21 км {ливн. осадки, дождь} 9/9 1500 м
[]
+21.0 +17.4 80 +26 +26 душно 1019.2 1008.7 0.2
20 16.08 Ю 1 16 км 8/0
[Ac trans Ci fib]
+19.9 +17.3 85 +24 +24 комфорт 1019.3 1008.8
21 16.08 ЮЗ 2 30 км {ливн. осадки, дождь} 5/0
[]
+19.9 +15.9 78 +23 +23 комфорт 1019.1 1008.6 0.4
22 16.08 ЮЗ 1 23 км 4/0
[]
+18.6 +15.3 81 +20 +20 тепло 1019.0 1008.4
23 16.08 Ю 1 30 км 4/0
[]
+17.9 +14.8 82 +19 +19 тепло 1018.7 1008.1
00 17.08 ЮЗ 1 30 км {ливн. осадки, дождь} 4/0
[]
+17.0 +14.1 83 +18 +18 тепло 1018.4 1007.7
01 17.08 ЮЗ 1 30 км 9/0
[]
+16.7 +13.4 81 +18 +18 тепло 1018.5 1007.8
02 17.08 Ю 2 30 км 9/0
[Ac trans]
+16.7 +12.6 77 +17 +17 тепло 1018.1 1007.4
03 17.08 Ю 2 30 км 9/0
[Ac trans]
+16.5 +12.6 78 +17 +17 тепло 1017.7 1007.0
04 17.08 Ю 2 50 км 9/1 2000 м
[Sc Ac As Ci fib]
+16.3 +12.6 79 +17 +17 тепло 1017.5 1006.8
05 17.08 Ю 2 40 км 9/6 2000 м
[Sc Ac trans Ci fib]
+16.2 +12.7 80 +16 +16 тепло 1017.6 1006.9
06 17.08 Ю 2 30 км 9/4 2000 м
[Sc Ac trans Ci fib]
+16.5 +13.4 82 +17 +17 тепло 1017.5 1006.8 +16.2 +23.3 0.4
07 17.08 ЮЗ 3 29 км 9/1 420 м
[]
+18.0 +14.3 79 +18 +20 по сезону 1017.4 1006.8
08 17.08 ЮЗ 3 30 км 9/9 500 м
[Sc]
+18.9 +14.6 76 +20 +21 тепло 1017.6 1007.0
09 17.08 ЮЗ 3 12 км в посл. час ливневой дождь 10/9 270 м
[Sc]
+18.3 +16.5 89 +19 +19 по сезону 1017.8 1007.2
10 17.08 ЮЗ 3 16 км 10/9 330 м
[Sc]
+19.7 +16.5 82 +22 +23 комфорт 1017.7 1007.2
11 17.08 ЮЗ 3 21 км 10/9 420 м
[Sc]
+20.7 +16.7 78 +24 +25 комфорт 1017.9 1007.4
12 17.08 ЮЗ 3 20 км {ливн. осадки, дождь} 10/9 500 м
[Sc]
+21.5 +17.1 76 +25 +26 комфорт 1017.7 1007.2
13 17.08 ЮЗ 3 35 км 10/9 600 м
[Cu Sc]
+22.2 +17.6 75 +27 +27 душно 1017.4 1007.0
14 17.08 ЮЗ 4 30 км 9/9 800 м
[Cu Sc Ac trans]
+23.1 +17.3 70 +28 +29 душно 1017.0 1006.6
15 17.08 ЮЗ 4 40 км 9/9 930 м
[Cu Sc Ac trans]
+24.2 +17.7 67 +28 +29 душно 1016.5 1006.1
16 17.08 ЮЗ 3 4000 м ливневой дождь 9/9 1050 м
[Cb cap]
+21.0 +18.6 86 +26 +26 душно 1016.8 1006.3 3
17 17.08 З 2 21 км в посл. час ливневой дождь 9/9 900 м
[Cb cap]
+22.1 +19.1 83 +28 +28 душно 1016.2 1005.8 4
18 17.08 З 2 5000 м ливневой дождь 9/9 600 м
[Cb cap]
+21.5 +19.2 87 +26 +26 душно 1016.3 1005.9 +16.5 +25.1 7
19 17.08 Ю 2 10 км в посл. час ливневой дождь 9/9 1380 м
[Cb cap]
+20.5 +18.8 90 +25 +25 комфорт 1016.4 1005.9 3
20 17.08 ЮЗ 2 55 км 10/10 1230 м
[]
+20.2 +18.5 90 +24 +24 комфорт 1016.3 1005.8
21 17.08 ЮЗ 2 55 км {ливн. осадки, дождь} 9/9 700 м
[Sc]
+20.0 +18.5 91 +24 +24 комфорт 1016.2 1005.7 3
22 17.08 ЮЗ 2 20 км 6/6 330 м
[Sc]
+19.7 +18.4 92 +23 +23 комфорт 1016.1 1005.6
23 17.08 ЮЗ 2 55 км 9/9 500 м
[Sc]
+19.7 +18.2 91 +23 +23 комфорт 1015.7 1005.2
00 18.08 ЮЗ 3 10 км {ливн. осадки, дождь} 9/9 330 м
[Sc]
+19.5 +18.0 91 +22 +22 комфорт 1015.5 1005.0
01 18.08 З 3 50 км в посл. час дождь 9/9 400 м
[Sc]
+19.3 +17.8 91 +22 +22 комфорт 1015.7 1005.2
02 18.08 ЮЗ 1 45 км 9/9 420 м
[Sc]
+19.1 +17.6 91 +22 +22 комфорт 1015.3 1004.8
03 18.08 ЮЗ 2 40 км {дождь} 9/9 270 м
[Sc]
+19.1 +17.8 92 +22 +22 комфорт 1015.1 1004.6 9
04 18.08 ЮЗ 1 12 км слабый дождь 9/9 300 м
[Sc Ac und]
+18.7 +17.4 92 +21 +21 комфорт 1014.8 1004.3 0.6
05 18.08 ЮЗ 1 9000 м слабый дождь 9/9 150 м
[Cu Sc]
+18.6 +17.6 94 +21 +21 комфорт 1015.1 1004.6 1
06 18.08 Ю 2 20 км слабый дождь 9/9 100 м
[Cu Sc]
+18.5 +17.5 94 +20 +20 тепло 1014.9 1004.4 +18.5 +21.5 6
07 18.08 ЮЗ 2 20 км слабый дождь 9/9 600 м
[Cu Sc]
+17.7 +16.4 92 +18 +18 по сезону 1015.2 1004.6 0.2
08 18.08 ЮЗ 2 12 км слабый дождь 10/9 700 м
[Cu Sc Ac As]
+17.9 +16.8 93 +18 +19 по сезону 1015.4 1004.8 0.6
09 18.08 ЮЗ 2 8000 м слабый дождь 10/9 210 м
[Cu Sc]
+17.2 +15.9 92 +17 +18 по сезону 1015.3 1004.7 2
10 18.08 ЮЗ 3 16 км в посл. час дождь 10/8 180 м
[Frnb Ac As]
+17.3 +16.0 92 +17 +18 очень
холодно
1015.0 1004.4 0.2
11 18.08 ЮЗ 2 12 км в посл. час ливневой дождь 10/9 210 м
[Cu Sc]
+17.5 +16.4 93 +18 +19 холодно 1015.3 1004.7 0.8
12 18.08 ЮЗ 2 12 км в посл. час ливневой дождь 10/9 300 м
[Cb cap]
+18.1 +16.8 92 +19 +19 прохладно 1015.0 1004.4 1
13 18.08 Ю 3 30 км {ливн. осадки, дождь} 9/6 210 м
[]
+19.2 +17.5 90 +21 +24 комфорт 1015.0 1004.5
14 18.08 Ю 3 25 км 9/9 540 м
[Cu Sc]
+21.1 +16.9 77 +25 +26 комфорт 1014.7 1004.2
15 18.08 ЮЗ 4 25 км {ливн. осадки, дождь} 5/5 1050 м
[Cu med, cong]
+22.8 +14.1 58 +26 +29 жарко 1014.3 1003.9 6
16 18.08 З 2 25 км слабый ливневой дождь 9/9 1050 м
[Cu Sc]
+21.2 +12.9 59 +23 +24 комфорт 1014.7 1004.2
17 18.08 СЗ 1 25 км {ливн. осадки, дождь} 9/9 1300 м
[Cb cap]
+21.1 +14.0 64 +24 +24 комфорт 1015.1 1004.6 0.2
18 18.08 ЮЗ 3 4000 м гроза, ливневой дождь 9/9 1000 м
[Cb cap]
+17.4 +13.5 78 +18 +18 холодно 1016.2 1005.6 +17.1 +23.4 4
19 18.08 З 1 35 км {гроза, ливн. осадки} н/о +16.2 +14.2 88 +17 +17 прохладно 1016.8 1006.1 2
20 18.08 З 1 25 км 1/1 240 м
[Sc]
+15.0 +12.9 87 +15 +15 холодно 1017.3 1006.6
21 18.08 З 1 50 км {гроза, ливн. осадки} 6/6 210 м
[Sc]
+14.7 +12.2 85 +15 +15 прохладно 1017.9 1007.2 2
22 18.08 З 1 35 км ясно +13.0 +10.9 87 +13 +13 по сезону 1018.6 1007.8
23 18.08 З 1-2
{2}
40 км н/о +12.0 +9.9 87 +12 +12 прохладно 1019.1 1008.2
00 19.08 ЮЗ 2 25 км {гроза, ливн. осадки} ясно +11.7 +9.9 89 +11 +11 холодно 1019.6 1008.7
01 19.08 З 2 25 км ясно +11.8 +9.5 86 +11 +11 прохладно 1019.8 1008.9
02 19.08 ЮЗ 1 25 км ясно +11.3 +8.9 85 +11 +11 прохладно 1020.0 1009.1
03 19.08 ЮЗ 2 20 км ясно +11.3 +9.0 86 +10 +10 холодно 1020.0 1009.1 0.2
04 19.08 ЮЗ 2 20 км 1/1 750 м
[Sc]
+11.0 +8.9 87 +10 +10 по сезону 1020.1 1009.2
05 19.08 ЮЗ 2 20 км 1/1 750 м
[Sc]
+11.1 +9.0 87 +10 +10 прохладно 1020.4 1009.5
06 19.08 ЮЗ 2 20 км 1/1 600 м
[Sc]
+12.1 +9.5 84 +11 +12 прохладно 1020.9 1010.0 +10.8 +17.3 3
07 19.08 ЮЗ 3 20 км 1/0
[As trans]
+13.8 +10.4 80 +13 +15 холодно 1021.1 1010.3
08 19.08 З 3 20 км 3/3 500 м
[Cu hum]
+15.9 +11.5 75 +16 +19 прохладно 1021.3 1010.6
09 19.08 З 2 25 км 4/4 600 м
[Cu hum]
+17.4 +11.4 68 +18 +23 по сезону 1021.4 1010.7
10 19.08 З 3 25 км 8/8 800 м
[Cu med, cong]
+19.1 +11.9 63 +20 +22 холодно 1021.3 1010.7
11 19.08 З 4 25 км 8/8 1000 м
[Cu med, cong]
+19.1 +10.9 59 +20 +22 прохладно 1021.2 1010.6
12 19.08 ЮЗ 3 25 км 8/8 1080 м
[Cu med, cong]
+19.7 +11.2 58 +21 +24 комфорт 1021.3 1010.7
13 19.08 З 3 25 км 8/8 1200 м
[Cu med, cong]
+21.1 +10.3 50 +23 +25 комфорт 1021.3 1010.8
14 19.08 З 3 25 км 8/8 1300 м
[Cu Sc]
+22.5 +10.6 47 +24 +26 комфорт 1021.2 1010.7
15 19.08 З 3 25 км 8/8 1300 м
[Cu Sc]
+20.9 +10.4 51 +23 +24 комфорт 1021.5 1010.9
16 19.08 З 2 25 км 9/9 1300 м
[Cu Sc]
+20.8 +9.1 47 +23 +23 комфорт 1021.3 1010.7
17 19.08 З 2 25 км 9/9 1380 м
[Cu Sc]
+19.2 +9.9 55 +21 +21 комфорт 1022.0 1011.4

 

Местоположение метеостанции Paris Orly Airport (Франция): широта 48.72 долгота 2.38 высота над уровнем моря 90 м.

В архиве по умолчанию представлена погода в Paris Orly Airport за последнюю неделю. Архивные данные за месяц целиком и за предыдущие месяцы, начиная с января 2011 года, Вы можете получить, выбрав интересующий диапазон дат из раскрывающегося списка и нажав кнопку "Ввод!".

Внимание! Время в таблицах - всемирное. Для получения местного времени необходимо прибавить поправку, которая в Paris Orly Airport равна 1 ч.

Смотрите также архив погоды в соседних городах и на ближайших метеорологических станциях:

Погода в Paris (Франция) (12 км)
Погода в Villacoublay (Франция) (14 км)
Погода в Melun (Франция) (25 км)
Погода в Le Bourget (Франция) (28 км)
Погода в Trappes (Франция) (28 км)
Погода в Charles De Gaulle Airport (Франция) (35 км)
Погода в Cormeilles (Франция) (48 км)
Погода в Creil (Франция) (60 км)
Погода в Chartres (Франция) (70 км)
Погода в Beauvais (Франция) (86 км)

Пояснения к столбцам:

Ветер - указаны скорость ветра в м/с - средняя за 10 мин, порывы в срок и между сроками (в фигурных скобках) и направление, откуда дует ветер: С - северный, СВ - северо-восточный, В - восточный, ЮВ - юго-восточный, Ю - южный, ЮЗ - юго-западный, З - западный, СЗ - северо-западный.
Видимость - горизонтальная дальность видимости в метрах или километрах. При видимости от 1 до 10 км при отсутствии осадков обычно наблюдается дымка, при ухудшении видимости до 1 км и менее - туман. В сухую погоду видимость может ухудшаться дымом, пылью или мглою.
Явления - указаны атмосферные явления, наблюдавшиеся в срок или в последний час перед сроком; фигурными скобками обозначены явления, наблюдавшиеся между сроками (за 1-3 часа до срока); квадратными скобками обозначены град или гололедные отложения с указанием их диаметра в мм.
Облачность - указаны через наклонную черту общая и нижняя облачность в баллах и высота нижней границы облаков в метрах; квадратными скобками обозначены формы облаков: Ci - перистые, Cs - перисто-слоистые, Cc - перисто-кучевые, Ac - высококучевые, As - высокослоистые, Sc - слоисто-кучевые, Ns - слоисто-дождевые, Cu - кучевые, Cb - кучево-дождевые. Подробнее классификацию облаков см. в Атласе облаков (PDF).
T - Температура воздуха - температура, измеренная на высоте 2 м над землей.
Td - Температура точки росы - температура, при понижении до которой содержащийся в воздухе водяной пар достигнет насыщения.
f - Относительная влажность воздуха - влажноcть воздуха, измеренная на высоте 2 м над землей.
Te - Эффективная температура - температура, которую ощущает одетый по сезону человек в тени. Характеристика душности погоды. При расчете учитывается влияние влажности воздуха и скорости ветра на теплоощущения человека.
Tes - Эффективная температура на солнце - температура, которую ощущает человек, с поправкой на солнечный нагрев. Характеристика знойности погоды. Зависит от высоты солнца над горизонтом, облачности и скорости ветра. Ночью, в пасмурную погоду, а также при ветре 12 м/с и более поправка равна нулю.
P - Атмосферное давление - приведенное к уровню моря атмосферное давление.
Po - Атмосферное давление - измеренное на уровне метеостанции атмосферное давление.
Tmin - Минимальная температура - минимум температуры воздуха на высоте 2 м над землей.
Tmax - Максимальная температура - максимум температуры воздуха на высоте 2 м над землей.
R - Количество осадков - Количество выпавших осадков за период времени, мм. При наведении курсора мыши на число - период времени, за который выпало указанное количество осадков.
R24 - Количество осадков - Количество выпавших осадков за 24 часа, мм.
S - Снежный покров - Высота снежного покрова, см. При наведении курсора мыши на число - состояние снежного покрова и степень покрытия местности в баллах.